Regional Weather Roundup
Issued by NWS Cleveland, OH

Home | Current Version | Previous Version | Graphics & Text | Print | Product List | Glossary On
Versions: 1 2 3 4 5 6 7 8 9 10 11 12 13 14 15 16 17 18 19 20 21 22 23 24 25 26 27 28 29 30 31 32 33 34 35 36 37 38 39 40 41 42 43 44 45 46 47 48 49 50
000
ASUS41 KCLE 262002
RWRCLE
OHIO REGIONAL WEATHER ROUNDUP
NATIONAL WEATHER SERVICE CLEVELAND, OH
400 PM EDT FRI MAY 26 2017

NOTE: "FAIR" INDICATES FEW OR NO CLOUDS BELOW 12,000 FEET WITH NO
SIGNIFICANT WEATHER AND/OR OBSTRUCTIONS TO VISIBILITY.

OHZ001>008-015>018-024>027-034-035-043-044-262100-
   NORTHWEST OHIO

CITY           SKY/WX    TMP DP  RH WIND       PRES   REMARKS
DEFIANCE       CLOUDY    68  54  60 SW6       29.86S
FINDLAY        MOSUNNY   73  53  49 W10       29.86S
TOLEDO EXPRESS PTSUNNY   70  54  56 W7        29.86R
TOLEDO EXEC    MOSUNNY   71  55  56 W6        29.86S
LIMA           CLOUDY    69  56  62 W8        29.88S
$$

OHZ009>014-019>023-028>033-038-089-262100-
   NORTHEAST OHIO

CITY           SKY/WX    TMP DP  RH WIND       PRES   REMARKS
CLE-HOPKINS    PTSUNNY   64  53  67 W9        29.90F
CLE-LAKEFRONT  CLOUDY    63  55  75 W9        29.87F
CUY CO. ARPT   PTSUNNY   63  54  72 W14G23    29.88F
LORAIN-ELYRIA  CLOUDY    63  50  62 NW6       29.89S
ASHTABULA      CLOUDY    60  54  80 W12       29.87S
AKRON-CANTON   PTSUNNY   63  54  72 NW9       29.88F
WOOSTER        PTSUNNY   66  54  65 W10       29.89S
MANSFIELD      MOSUNNY   66  54  65 W8        29.89S
YOUNGSTOWN     CLOUDY    62  52  69 NW8       29.87S
$$

OHZ042-051>053-060>062-070>072-077>081-262100-
  SOUTHWEST OHIO

CITY           SKY/WX    TMP DP  RH WIND       PRES   REMARKS
CINC-COVINGTON MOSUNNY   77  57  50 SW12      29.88S
CINC-LUNKEN    MOSUNNY   77  60  55 SW8       29.87F
HAMILTON       CLOUDY    79  58  48 SW7       29.87F
DAYTON         CLOUDY    72  56  57 W6        29.88F
WRIGHT-PAT AFB NOT AVBL
DAYTON GENERAL CLOUDY    75  54  47 VRB5      29.87F
WILMINGTON     SUNNY     73  57  57 SW6       29.88F
$$

OHZ036-037-039>041-045>050-054>059-063>069-073>076-082>088-262100-
  CENTRAL AND SOUTHEAST OHIO

CITY           SKY/WX    TMP DP  RH WIND       PRES   REMARKS
COLUMBUS       CLOUDY    74  56  53 W15       29.88S
OSU AIRPORT    MOSUNNY   75  58  55 W10       29.88S
BOLTON FIELD   PTSUNNY   72  55  56 W7        29.89S
RICKENBACK AFB MOSUNNY   73  56  54 W12       29.88S
NEWARK         MOSUNNY   73  52  47 W8        29.87S
MARION         MOSUNNY   71  54  54 W9        29.89R
LANCASTER      MOSUNNY   76  59  55 W9G17     29.89F
ZANESVILLE     PTSUNNY   74  54  49 W15G21    29.88S
NEW PHILLY     NOT AVBL
$$



USA.gov is the U.S. government's official web portal to all federal, state and local government web resources and services.